KDAY Airport Diagram

We have created a template for each of the higher traffic airports in the vZID airspace. They include KCMH, KCRW, KCVG, KDAY, KIND, KLEX and KSDF. You wil find usefull information including the airport diagram, weather, and specific airport procedures.

KDAY Weather

[Source: ADDS]
METAR
KDAY 172156Z 32011KT 10SM SCT028TCU SCT110 30/23 A2993 RMK AO2 SLP124 TCU ALQDS T03000228 =
KDAY 171748Z 1718/1818 28010KT P6SM VCSH BKN025 FM172000 30010KT P6SM VCSH BKN035 FM180100 32007KT P6SM BKN040 FM180900 26003KT 2SM BR SCT015 FM181300 22004KT P6SM SCT025 FM181500 21005KT P6SM SCT040
TAF
KDAY 171748Z 1718/1818 28010KT P6SM VCSH BKN025 FM172000 30010KT P6SM VCSH BKN035 FM180100 32007KT P6SM BKN040 FM180900 26003KT 2SM BR SCT015 FM181300 22004KT P6SM SCT025 FM181500 21005KT P6SM SCT040 =

KDAY Operations

Approach/Departure operations for KDAY were consolidated into the Columbus TRACON quite some time back. We have recently made that change here at ZID. When arriving/departing the Dayton Airport and airports in the surrounding area, contact with the Columbus APP/DEP controller, if online, should be expected.

Calm Wind Configuration is runways 24L/R. This configuration is used up to and including 10kts.

Runway 24L typically departs south and east, except larger aircraft requiring a longer runway.

Runway 24R typically departs north and west.

 

JSN Epic template designed by JoomlaShine.com